Daviess Cnty AP, Washington,, IN

8:09 AM EST on November 21, 2019 (GMT -0500)
Daviess County

Weather History for KDCY - September, 2019

Change the Weather History Date:

Saturday, September 14, 2019

  Actual Average (KLWV) Record (KLWV)
Temperature  
Mean Temperature 68 °F 70 °F  
Max Temperature 83 °F 83 °F 96 °F (1991)
Min Temperature 54 °F 58 °F 44 °F (1999)
Degree Days  
Heating Degree Days 0 1  
Month to date heating degree days 1  
Since 1 July heating degree days 2  
Cooling Degree Days 4 6  
Month to date cooling degree days 107  
Year to date cooling degree days 1290  
Growing Degree Days 18 (Base 50)    
Moisture  
Dew Point 58 °F    
Average Humidity 75    
Maximum Humidity 100    
Minimum Humidity 37    
Precipitation  
Precipitation 0.00 in 0.11 in 0.80 in (1989)
Month to date precipitation 1.54  
Year to date precipitation 30.89  
Sea Level Pressure  
Sea Level Pressure 30.23 in    
Wind  
Wind Speed 3 mph (SE)    
Max Wind Speed 8 mph    
Max Gust Speed -    
Visibility 10 miles    
Events      
T = Trace of Precipitation, MM = Missing Value Source: NWS Daily Summary

Daily Weather History Graph

Daily Weather History Graph

Search for Another Location

Airport or City:

Astronomy

Sep. 14, 2019 Rise Set
Actual Time 7:28 AM EDT 7:58 PM EDT
Civil Twilight 7:02 AM EDT 8:25 PM EDT
Nautical Twilight 6:30 AM EDT 8:56 PM EDT
Astronomical Twilight 5:58 AM EDT 9:28 PM EDT
Moon 8:39 PM EDT (9/14) 7:42 AM EDT (9/14)
Length of Visible Light 13h 23m
Length of Day
12h 29m
Full, 100% of the Moon is Illuminated
Sep 14
Full
Sep 21
Last Quarter
Sep 28
New
Oct 5
First Quarter
Oct 13
Full

Hourly Weather History & Observations

Time (EDT) Temp. Heat Index Dew Point Humidity Pressure Visibility Wind Dir Wind Speed Gust Speed Precip Events Conditions
12:15 AM 63.9 °F - 59.5 °F 86% 30.19 in 10.0 mi NW 3.5 mph - N/A   Clear
12:35 AM 65.3 °F - 59.0 °F 80% 30.19 in 10.0 mi NW 5.8 mph - N/A   Clear
12:55 AM 64.2 °F - 58.5 °F 82% 30.19 in 10.0 mi NW 5.8 mph - N/A   Clear
1:15 AM 62.6 °F - 58.6 °F 87% 30.19 in 10.0 mi NW 3.5 mph - N/A   Clear
1:50 AM 61.5 °F - 58.5 °F 90% 30.20 in 10.0 mi WNW 3.5 mph - N/A   Clear
2:15 AM 60.6 °F - 58.1 °F 91% 30.20 in 10.0 mi WNW 3.5 mph - N/A   Clear
2:35 AM 60.1 °F - 57.2 °F 90% 30.21 in 10.0 mi WNW 3.5 mph - N/A   Clear
2:55 AM 60.1 °F - 59.7 °F 99% 30.20 in 10.0 mi WNW 3.5 mph - N/A   Clear
3:15 AM 60.8 °F - 60.8 °F 100% 30.21 in 10.0 mi Calm Calm - N/A   Clear
3:35 AM 60.6 °F - 60.1 °F 98% 30.21 in 10.0 mi Calm Calm - N/A   Clear
3:55 AM 61.3 °F - 60.8 °F 98% 30.21 in 10.0 mi Calm Calm - N/A   Clear
4:15 AM 60.1 °F - 59.7 °F 99% 30.22 in 10.0 mi Calm Calm - N/A   Clear
4:35 AM 61.0 °F - 60.8 °F 99% 30.22 in 10.0 mi Calm Calm - N/A   Clear
4:55 AM 60.3 °F - 60.1 °F 99% 30.23 in 10.0 mi Calm Calm - N/A   Clear
5:15 AM 59.7 °F - 59.4 °F 99% 30.23 in 10.0 mi Calm Calm - N/A   Clear
5:30 AM 59.0 °F - 58.8 °F 99% 30.24 in 10.0 mi Calm Calm - N/A   Clear
5:50 AM 59.2 °F - 59.0 °F 99% 30.24 in 10.0 mi Calm Calm - N/A   Clear
6:15 AM 56.8 °F - 56.5 °F 99% 30.25 in 10.0 mi Calm Calm - N/A   Clear
6:30 AM 56.3 °F - 56.3 °F 100% 30.25 in 10.0 mi Calm Calm - N/A   Clear
6:55 AM 55.9 °F - 55.6 °F 99% 30.26 in 10.0 mi Calm Calm - N/A   Clear
7:15 AM 54.3 °F - 54.1 °F 99% 30.27 in 10.0 mi Calm Calm - N/A   Clear
7:35 AM 54.7 °F - 54.3 °F 99% 30.28 in 10.0 mi Calm Calm - N/A   Clear
7:55 AM 55.0 °F - 54.7 °F 99% 30.28 in 10.0 mi Calm Calm - N/A   Clear
8:15 AM 57.7 °F - 57.6 °F 99% 30.28 in 10.0 mi Calm Calm - N/A   Clear
8:35 AM 60.3 °F - 60.1 °F 99% 30.29 in 10.0 mi Calm Calm - N/A   Clear
8:55 AM 61.5 °F - 61.2 °F 99% 30.30 in 10.0 mi Calm Calm - N/A   Clear
9:15 AM 62.8 °F - 62.4 °F 99% 30.30 in 10.0 mi Calm Calm - N/A   Clear
9:35 AM 63.0 °F - 62.8 °F 99% 30.30 in 10.0 mi Calm Calm - N/A   Clear
9:55 AM 63.9 °F - 63.1 °F 97% 30.30 in 10.0 mi Calm Calm - N/A   Clear
10:15 AM 65.8 °F - 61.9 °F 87% 30.31 in 10.0 mi Calm Calm - N/A   Clear
10:35 AM 67.8 °F - 59.7 °F 75% 30.30 in 10.0 mi Calm Calm - N/A   Clear
10:55 AM 69.4 °F - 58.8 °F 69% 30.30 in 10.0 mi East 3.5 mph - N/A   Clear
11:15 AM 70.9 °F - 59.2 °F 66% 30.30 in 10.0 mi Calm Calm - N/A   Clear
11:35 AM 73.4 °F - 57.6 °F 58% 30.29 in 10.0 mi ENE 4.6 mph - N/A   Clear
11:55 AM 74.7 °F - 55.6 °F 51% 30.29 in 10.0 mi NE 5.8 mph - N/A   Clear
12:15 PM 76.1 °F - 56.1 °F 50% 30.29 in 10.0 mi ENE 4.6 mph - N/A   Clear
12:35 PM 76.1 °F - 55.2 °F 48% 30.28 in 10.0 mi ENE 6.9 mph - N/A   Clear
12:55 PM 77.5 °F - 56.5 °F 48% 30.28 in 10.0 mi ENE 6.9 mph - N/A   Clear
1:15 PM 77.7 °F - 55.0 °F 45% 30.27 in 10.0 mi East 5.8 mph - N/A   Clear
1:35 PM 79.2 °F - 53.8 °F 41% 30.26 in 10.0 mi East 3.5 mph - N/A   Clear
1:55 PM 79.5 °F - 54.3 °F 42% 30.27 in 10.0 mi Calm Calm - N/A   Clear
2:15 PM 80.2 °F 80.3 °F 55.4 °F 42% 30.26 in 10.0 mi NE 4.6 mph - N/A   Clear
2:35 PM 81.3 °F 80.7 °F 53.8 °F 38% 30.25 in 10.0 mi ESE 5.8 mph - N/A   Clear
2:55 PM 81.9 °F 81.0 °F 53.4 °F 37% 30.24 in 10.0 mi Calm Calm - N/A   Clear
3:15 PM 83.1 °F 82.2 °F 55.0 °F 38% 30.24 in 10.0 mi ESE 5.8 mph - N/A   Clear
3:35 PM 82.9 °F 81.9 °F 54.5 °F 37% 30.23 in 10.0 mi SSE 5.8 mph - N/A   Clear
3:55 PM 82.2 °F 82.0 °F 57.7 °F 43% 30.23 in 10.0 mi SE 6.9 mph - N/A   Clear
4:15 PM 82.0 °F 82.1 °F 58.8 °F 45% 30.22 in 10.0 mi South 5.8 mph - N/A   Clear
4:35 PM 82.4 °F 82.3 °F 58.5 °F 44% 30.22 in 10.0 mi South 4.6 mph - N/A   Clear
4:55 PM 82.2 °F 82.3 °F 59.0 °F 45% 30.21 in 10.0 mi South 6.9 mph - N/A   Clear
5:15 PM 81.7 °F 81.8 °F 58.5 °F 45% 30.20 in 10.0 mi South 8.1 mph - N/A   Clear
5:35 PM 81.9 °F 81.9 °F 58.8 °F 45% 30.20 in 10.0 mi South 6.9 mph - N/A   Clear
5:55 PM 81.9 °F 81.9 °F 58.5 °F 45% 30.19 in 10.0 mi South 8.1 mph - N/A   Clear
6:15 PM 81.1 °F 81.3 °F 57.9 °F 45% 30.19 in 10.0 mi South 8.1 mph - N/A   Clear
6:35 PM 80.1 °F 80.6 °F 57.9 °F 47% 30.19 in 10.0 mi South 6.9 mph - N/A   Clear
6:55 PM 79.3 °F - 58.1 °F 48% 30.18 in 10.0 mi South 5.8 mph - N/A   Clear
7:15 PM 77.9 °F - 58.5 °F 51% 30.18 in 10.0 mi South 5.8 mph - N/A   Clear
7:35 PM 75.7 °F - 59.0 °F 56% 30.19 in 10.0 mi South 4.6 mph - N/A   Clear
7:55 PM 71.4 °F - 61.2 °F 70% 30.19 in 10.0 mi Calm Calm - N/A   Clear
8:15 PM 67.6 °F - 60.3 °F 77% 30.19 in 10.0 mi Calm Calm - N/A   Clear
8:35 PM 65.7 °F - 59.5 °F 81% 30.19 in 10.0 mi Calm Calm - N/A   Clear
8:55 PM 65.8 °F - 60.8 °F 84% 30.19 in 10.0 mi Calm Calm - N/A   Clear
9:15 PM 64.4 °F - 59.2 °F 83% 30.19 in 10.0 mi Calm Calm - N/A   Clear
9:35 PM 62.8 °F - 58.8 °F 87% 30.20 in 10.0 mi Calm Calm - N/A   Clear
9:55 PM 63.5 °F - 58.8 °F 85% 30.20 in 10.0 mi Calm Calm - N/A   Clear
10:15 PM 61.7 °F - 58.6 °F 90% 30.21 in 10.0 mi Calm Calm - N/A   Clear
10:35 PM 61.0 °F - 59.5 °F 95% 30.21 in 10.0 mi Calm Calm - N/A   Clear
10:55 PM 59.7 °F - 59.4 °F 99% 30.21 in 10.0 mi Calm Calm - N/A   Clear
11:15 PM 60.3 °F - 59.4 °F 97% 30.20 in 10.0 mi Calm Calm - N/A   Clear
11:35 PM 59.9 °F - 59.7 °F 99% 30.21 in 10.0 mi Calm Calm - N/A   Clear
11:55 PM 60.1 °F - 59.9 °F 99% 30.21 in 10.0 mi Calm Calm - N/A   Clear